Location: Calvin Observatory
(42.9309°N, 85.5886°W)
Time: 20:19:27
(UTC-04:00)

ISS - Visible Passes

Search period start: 25 October 2014 00:00
Search period end: 03 November 2014 23:00
Orbit: 412 x 416 km, 51.6° (Epoch: 25 October)

Date Brightness Start Highest point End Pass type
(mag) Time Alt. Az. Time Alt. Az. Time Alt. Az.
25 Oct -1.7 20:25:58 10° WNW 20:29:00 32° SW 20:30:15 24° S visible
26 Oct -2.7 19:36:36 10° WNW 19:39:53 57° SW 19:43:10 10° SE visible
27 Oct -0.2 20:25:21 10° WSW 20:26:56 13° SW 20:28:30 10° SSW visible
28 Oct -0.7 19:35:12 10° W 19:37:51 22° SW 19:40:29 10° S visible
